Regional Weather Roundup
Issued by NWS Jackson, KY

Home | Current Version | Previous Version | Text Only | Print | Product List | Glossary Off
Versions: 1 2 3 4 5 6 7 8 9 10 11 12 13 14 15 16 17 18 19 20 21 22 23 24 25 26 27 28 29 30 31 32 33 34 35 36 37 38 39 40 41 42 43 44 45 46 47 48 49 50

000
ASUS43 KJKL 271310
RWRJKL

EAST KENTUCKY HOURLY WEATHER ROUNDUP
NATIONAL WEATHER SERVICE JACKSON KY
900 AM EDT WED MAY 27 2015

NOTE: "FAIR" INDICATES FEW OR NO CLOUDS BELOW 12,000 FEET WITH
NO SIGNIFICANT WEATHER AND/OR OBSTRUCTIONS TO VISIBILITY.

* THESE REPORTS ARE NOT UNDER NWS QUALITY CONTROL AND MAY NOT
  REPORT WEATHER SUCH AS PRECIPITATION AND FOG.

KYZ079-080-083-085-087-088-110-112-115-119-120-271400
...EASTERN KENTUCKY...

CITY           SKY/WX    TMP DP  RH WIND       PRES   REMARKS
JACKSON        CLOUDY    68  64  87 CALM      30.21R
LONDON         CLOUDY    69  62  78 S7        30.21R
SOMERSET*      CLOUDY    68  64  88 SW5       30.21R
MONTICELLO*    CLOUDY    71  67  87 SW7       30.23R
MIDDLESBORO*   CLOUDY    69  63  81 S6        30.24R
HARLAN APT*    CLOUDY    68  64  88 CALM      30.24R
HAZARD APT*    CLOUDY    70  64  83 S3        30.22R
BLACK MTN*       N/A     57  57 100 SW5         N/A
PIKEVILLE APT* PTSUNNY   70  64  83 CALM      30.22R
BIG SANDY*     PTSUNNY   72  64  76 SW8       30.21R
MOREHEAD APT*  CLOUDY    70  66  88 SW8       30.20R
$$

KYZ035-036-041-042-044-050-067-078-099-271400
...CENTRAL KENTUCKY...

CITY           SKY/WX    TMP DP  RH WIND       PRES   REMARKS
MT STERLING*   CLOUDY    70  68  94 W10G16    30.20R
FLEMING/MASON* CLOUDY    72  68  88 SW9       30.17R
DANVILLE*      CLOUDY    70  66  88 SW10      30.20R
RICHMOND*      CLOUDY    70  64  83 SW8       30.19R
LEXINGTON      CLOUDY    71  67  87 SW13      30.18R
FRANKFORT      PTSUNNY   70  66  87 SW9       30.15R
$$

KYZ091>093-OHZ055-061-077-WVZ005-015-034-035-042-271400
...SOUTHERN OHIO/WEST VIRGINIA...

CITY           SKY/WX    TMP DP  RH WIND       PRES   REMARKS
COVINGTON      MOSUNNY   70  64  81 SW12      30.13R
COLUMBUS       CLOUDY    69  65  86 S8        30.11R
DAYTON         PTSUNNY   69  63  81 SW12      30.11S
WILMINGTON     PTSUNNY   69  63  81 SW13      30.12R
HUNTINGTON     CLOUDY    69  65  86 SW6       30.17R
CHARLESTON     PTSUNNY   72  65  78 SW9       30.18R
PINEVILLE*     CLOUDY    68  68 100 MISG      30.29S
BECKLEY        CLOUDY    67  61  81 SW8       30.27R
BLUEFIELD      MOSUNNY   69  58  67 W10       30.29S
$$

VAZ002-007-008-TNZ017-027-036-066-071-271400
...SOUTHWEST VIRGINIA/EAST TENNESSEE...

CITY           SKY/WX    TMP DP  RH WIND       PRES   REMARKS
WISE*          MOSUNNY   66  57  72 SW8       30.29S
JONESVILLE*    CLOUDY    68  63  83 SW5       30.27R
ABINGDON*      CLOUDY    69  64  83 SW5       30.28S
BRISTOL        PTSUNNY   70  61  73 SW5       30.26S
KNOXVILLE      PTSUNNY   70  61  73 SW13      30.23R
OAK RIDGE      CLOUDY    69  63  81 VRB5      30.24S
CROSSVILLE     CLOUDY    67  62  84 S3        30.25R
NASHVILLE      CLOUDY    72  68  87 S10       30.19R
$$

...KEY TO REMARKS...
VSB - VISIBILITY IN MILES
WCI - WIND CHILL INDEX
HX  - HEAT INDEX

$$


USA.gov is the U.S. government's official web portal to all federal, state and local government web resources and services.